STARLINK-33794, 63820

Orbit data source: Space-Track

STARLINK-33794, 63820 is a payload satellite owned by SpaceX/Seattle (US) in LEO that was launched on Sun, 04 May 2025 UTC via an FALCON 9 launch vehicle from the Air Force Eastern Test Range (AFETR). Payload-class satellites include a variety of spacecraft equipped with specific instruments for various scientific and technological missions. These include communications satellites like Starlink; space stations such as the ISS; scientific satellites like the Hubble; Earth observation satellites from companies like Planet Labs, Umbra, and HawkEye 360; GPS; miniature CubeSats for education and research; and military/defense satellites.

Loading next visibility...
Identifier
63820, 2025-092S
Orbit
LEO
Country
Flag of USUS
Related business
Manufacturer
SpaceX/Seattle
Mission
Operational Commercial Communications
Bus & Motor
STARLINK V2MO, Unknown motor
Mass
575 kg wet, ~530 kg dry
Launch date (UTC)
2025-05-04 (4 months ago)
Launch vehicle
FALCON 9
Launch site
Air Force Eastern Test Range (AFETR)
Object type
Payload
Rocket body
Debris
Shape & HBR
Box + 1 Pan, 14.5 m
Radar Cross Section
41.120 m², Large (>1 m²)

Expand to show TLE details & history
Last TLE update: 13 hours ago

TLE from 13 hours ago
0 STARLINK-33794
1 63820U 25092S   25258.19988437  .00053314  00000-0  19291-2 0  9998
2 63820  43.0006  83.7984 0001738 280.0080  80.0575 15.27645765 21770
Epoch: 2025-09-15T04:47Z
TLE epoch observation values (Epoch: 2025-09-15T04:47:50.009Z)
Latitude
-0.00006°
Longitude
17.43201°
Altitude
482.422 km
Speed
7.626 km/s
True Right ascension
05h 35m 11s
True Declination
0° 00' 00"
Sunlit
Object was in daylight at epoch
Visualization orbit readout
Latitude
Unknown
Longitude
Unknown
Altitude
Unknown
Speed
Unknown
Apparent Right ascension
Unknown
Apparent Declination
Unknown
Sunlit
N/A
Visualization observer readout
Local Sidereal Time
10:15:00
Azimuth
Unknown
Elevation
Unknown
Doppler factor
Unknown
Orbital elements
Apogee altitude
485.99 km
Perigee altitude
483.605 km
Semi-major axis
6,862.934 km
Eccentricity
0.00017
Inclination
43.0006°
RAAN
83.7984°
Arg. of periapsis
280.008°
True anomaly
80.07712°
Mean anomaly
80.0575°
Eccentric anomaly
80.06731°
Mean motion
3.81749 °/min
Orbital period
94.3 mins
BSTAR
0.0019291
Loading maneuver chart data...
Computing Atmospheric mass density...
Loading historical data...
Loading historical data...
Loading historical data...
Loading historical data...
Loading historical data...
Loading historical data...
Loading historical data...

Documentation

Showing up to 5 results
|